Regional Weather Roundup
Issued by NWS

Home | Current Version | Previous Version | Text Only | Print | Product List | Glossary On
Versions: 1 2 3 4 5 6 7 8 9 10 11 12 13 14 15 16 17 18 19 20 21 22 23 24 25 26 27 28 29 30 31 32 33 34 35 36 37 38 39 40 41 42 43 44 45 46 47 48 49 50
280
ASUS44 KFWD 270915
RWRTX
NORTH TEXAS HOURLY WEATHER ROUNDUP
NATIONAL WEATHER SERVICE FORT WORTH TX
400 AM CDT TUE SEP 27 2016

NOTE: "FAIR" INDICATES FEW OR NO CLOUDS BELOW 12,000 FEET WITH NO
SIGNIFICANT WEATHER AND/OR OBSTRUCTIONS TO VISIBILITY.

TXZ118-119-271000-
DALLAS/FORT WORTH METROPLEX

CITY           SKY/WX    TMP DP  RH WIND       PRES   REMARKS
DFW AIRPORT    CLOUDY    69  60  73 NW8       30.11F
DALLAS LOVE    CLOUDY    68  59  73 N6        30.12S
FTW MEACHAM    CLOUDY    67  58  72 NW5       30.13S
DAL-EXECUTIVE  CLOUDY    66  62  87 NW7       30.11F
FTW-ALLIANCE   CLOUDY    62  55  77 N3        30.13S
FTW-NAS-JRB    CLOUDY    67  60  78 N7        30.14S
FTW-SPINKS     CLOUDY    67  59  76 N5        30.14F
ARLINGTON      CLOUDY    67  60  78 NW6       30.12S
GRAND PRAIRIE  CLOUDY    67  59  74 N5        30.13S
ADDISON        CLOUDY    66  60  80 N6        30.13S
MESQUITE       CLOUDY    66  61  84 NW6       30.11S
LANCASTER      CLOUDY    67  59  74 N5        30.12S
$$

TXZ091>094-102>105-117-120-121-131>134-271000-
NORTH CENTRAL TEXAS

CITY           SKY/WX    TMP DP  RH WIND       PRES   REMARKS
SHRMAN/DENISON PTCLDY    57  54  89 CALM      30.14S
BOWIE          PTCLDY    56  53  88 NW6       30.16S
BRIDGEPORT     PTCLDY    56  56  97 CALM      30.17S
DECATUR        MOCLDY    60  46  61 CALM      30.15S
DENTON         CLOUDY    59  54  83 NW3       30.13S
MCKINNEY       CLOUDY    65  57  75 N5        30.12S
GREENVILLE     CLOUDY    64  61  88 N3        30.10S
ROCKWALL       CLOUDY    66  60  81 NW6       30.10S
TERRELL        CLOUDY    67  60  78 N5        30.11S
WAXAHACHIE     CLOUDY    66  60  83 NW5       30.13S
CLEBURNE       CLOUDY    66  64  94 N6        30.14F
GRANBURY       CLOUDY    67  63  87 NW5       30.14F
$$

TXZ083>090-098>101-113>116-127>130-139>142-154-155-271000-
WESTERN NORTH TEXAS

CITY           SKY/WX    TMP DP  RH WIND       PRES   REMARKS
WICHITA FALLS  CLOUDY    56  49  77 NW7       30.17F
WF-KICKAPOO    CLOUDY    58  49  72 N7        30.19S
VERNON         PTCLDY    55  48  79 W3        30.19F
ABILENE        CLOUDY    59  53  80 W3        30.20F
ABILENE-DYESS  PTCLDY    60  50  70 NW5       30.19F
CISCO          CLOUDY    61  54  77 NW6       30.19S
BRECKENRIDGE     N/A     61  52  72 N5        30.17F
GRAHAM         MOCLDY    58  53  82 CALM      30.16S
MINERAL WELLS  CLOUDY    61  53  75 N3        30.13F
STEPHENVILLE   CLOUDY    64  57  76 N3        30.17S
COMANCHE       CLOUDY    63  57  81 N6        30.16F
BROWNWOOD      CLOUDY    64  54  68 N5        30.16F
COLEMAN        CLOUDY    62  49  63 NW6       30.18F
$$

TXZ143>147-156>162-174-175-271000-
CENTRAL TEXAS

CITY           SKY/WX    TMP DP  RH WIND       PRES   REMARKS
WACO           CLOUDY    67  61  81 N6        30.11R
WACO-MCGREGOR  CLOUDY    66  62  87 N5        30.11S
HILLSBORO      CLOUDY    65  60  84 N6        30.12S
CORSICANA      CLOUDY    67  63  87 N6        30.11F
MEXIA          CLOUDY    66  63  88 N5        30.09S
HEARNE         MOCLDY    65  64  94 N6        30.08F
CAMERON        CLOUDY    68  64  89 N5        30.09F
TEMPLE         CLOUDY    66  61  82 N8        30.10F
KILLEEN        CLOUDY    65  61  85 N7        30.11S
KILLEEN-SKYLRK CLOUDY    66  62  87 N6        30.11F
FORT HOOD      CLOUDY    65  61  85 VRB5      30.09F
GATESVILLE     CLOUDY    66  61  82 N5        30.14S
HAMILTON       CLOUDY    65  62  89 N5        30.14F
$$

TXZ095>097-106>112-122>126-135>138-148>153-164>167-271000-
EAST TEXAS

CITY           SKY/WX    TMP DP  RH WIND       PRES   REMARKS
PARIS          MOCLDY    61  55  82 N7        30.10F
SULPHUR SPRNGS CLOUDY    67  61  80 N7        30.12S
MOUNT PLEASANT CLOUDY    67  57  69 N5        30.10S
GILMER         CLOUDY    66  57  72 N3        30.08S
MINEOLA        CLOUDY    64  61  88 CALM      30.09S
TYLER          CLOUDY    66  60  81 CALM      30.08S
LONGVIEW       CLOUDY    66  59  78 CALM      30.06F
MARSHALL       CLOUDY    65  60  83 CALM      30.09S
ATHENS         CLOUDY    64  61  88 CALM      30.08S
PALESTINE      CLOUDY    67  62  85 CALM      30.09S
JACKSONVILLE   CLOUDY    65  60  84 N3        30.09F
HENDERSON      CLOUDY    66  58  75 E3        30.08F
CENTER         PTSUNNY   66  62  86 N6        30.06F
NACOGDOCHES    CLOUDY    66  59  77 N3        30.04S
LUFKIN         MOCLDY    66  64  93 N3        30.04F
$$

SUPPLEMENTAL OBSERVATIONS (CENTRAL)

CITY           SKY/WX    TMP DP  RH WIND       PRES   REMARKS
DENISON DAM      N/A     64  48  55 N7          N/A
CADDO GRASSLND   N/A     57  54  88 CALM        N/A
PAT MAYSE LAKE   N/A     57  55  94 N3          N/A
GREENVILLE       N/A     64  59  82 N6          N/A
CEDAR HILL       N/A     66  59  77 N2          N/A
ATHENS           N/A     64  61  88 CALM        N/A
LAKE LIMESTONE   N/A     66  61  82 N7          N/A
MCGREGOR         N/A     66  63  88 N2          N/A
TEMPLE           N/A     66  59  77 VRB1        N/A
$$

SUPPLEMENTAL OBSERVATIONS (WEST)

CITY           SKY/WX    TMP DP  RH WIND       PRES   REMARKS
MILLERS CREEK    N/A     57  54  88 W1          N/A
POSSUM KINGDOM   N/A     61  54  77 NW3         N/A
LBJ GRASSLAND    N/A     59  48  67 N2          N/A
GRANBURY         N/A     66  63  88 NW6         N/A
COMANCHE         N/A     63  55  77 N6          N/A
HAMBY            N/A     59  52  77 NW2         N/A
IVIE RESERVOIR   N/A     63  54  72 NW7         N/A
COLORADO BEND    N/A     64  59  82 N3          N/A
$$

SUPPLEMENTAL OBSERVATIONS (EAST)

CITY           SKY/WX    TMP DP  RH WIND       PRES   REMARKS
TEXARKANA        N/A     66  55  68 NE2         N/A
LINDEN           N/A     66  57  72 CALM        N/A
LUFKIN           N/A     66  61  82 MISG        N/A
N SABINE NF      N/A     64  63  94 MISG        N/A
$$

SUPPLEMENTAL OBSERVATIONS ARE A COLLECTION OF AUTOMATED INSTRUMENTS
THAT ARE MAINTAINED BY A VARIETY OF FEDERAL AND STATE AGENCIES.
CERTAIN ELEMENTS...SUCH AS HUMIDITY VALUES AND SUSTAINED WIND
SPEEDS...MAY BE APPROXIMATED.





USA.gov is the U.S. government's official web portal to all federal, state and local government web resources and services.